Location: Turtle Rock Observatory
(36.6913°N, 81.9708°W)
Time: 15:53:53
(UTC-04:00)

Daily predictions for brighter satellites

Satellite Brightness Start Highest point End
(mag) Time Altitude Azimuth Time Altitude Azimuth Time Altitude Azimuth
Cosmos 1655 Rocket 4.2 20:26:29 10° SSE 20:32:34 55° E 20:38:43 10° NNE
Cosmos 44 3.2 20:30:04 10° NNW 20:34:30 65° ENE 20:39:06 10° SE
CZ-4C R/B 4.0 20:27:32 10° NW 20:34:37 48° WSW 20:42:15 10° S
Okean 2 Rocket 3.1 20:31:38 10° S 20:36:07 83° E 20:40:39 10° N
CZ-2D R/B 3.8 20:33:05 10° SE 20:36:44 41° ENE 20:40:22 10° N
ATLAS 2AS CENTAUR R/B 3.4 20:30:08 10° S 20:36:57 39° ESE 20:44:12 10° NE
Intercosmos 25 Rocket 4.1 20:36:57 10° NNW 20:40:00 46° W 20:43:15 10° S
BREEZE-M DEB (TANK) 2.0 20:40:38 10° SW 20:43:03 79° SE 20:48:17 10° NE
BREEZE-M DEB (TANK) 3.4 20:43:41 10° NW 20:46:50 64° NE 20:59:04 10° ESE
H-2A R/B 3.1 20:43:27 10° S 20:47:14 68° W 20:51:00 10° NNW
Delta 2 Rocket 3.9 20:43:58 10° SW 20:47:36 39° SSE 20:51:42 10° E
NOSS 2-3 (E) 3.9 20:43:17 10° SSW 20:47:45 55° ESE 20:52:47 10° NE
ALOS 4.1 20:48:15 10° SSW 20:52:28 34° W 20:56:44 10° NNW
Cosmos 839 Rocket 4.4 20:46:34 10° SW 20:52:52 71° WNW 20:59:06 10° NNE
Cosmos 2227 4.2 20:47:19 10° NNW 20:52:59 85° ENE 20:58:40 10° SSE
Resurs 1-3 3.7 20:50:49 10° SSE 20:55:06 57° ENE 20:59:25 10° N
USA 186 2.2 20:52:04 10° SSE 20:55:16 45° ENE 20:58:31 10° N
Helios 1B rocket 4.0 20:53:21 10° NE 20:55:52 16° E 20:57:36 13° ESE
Lacrosse 5 2.0 20:51:07 10° SSW 20:56:03 54° SE 21:00:59 10° NE
Cosmos 1452 Rocket 4.1 20:51:09 10° SSW 20:56:22 64° WNW 21:01:38 10° NNE
Cosmos 1420 Rocket 4.0 20:52:27 10° SSW 20:57:38 90° E 21:02:50 10° NNE
Atlas Centaur 2 3.3 20:54:35 10° W 21:02:45 53° S 21:08:52 15° ESE
Meteor 2-11 Rocket 4.4 20:57:53 10° N 21:03:59 87° E 21:10:04 10° S
SeaSat 1 2.5 21:04:51 10° NNE 21:09:43 57° ESE 21:14:33 10° SSW
Cosmos 1602 4.0 21:06:08 10° SSW 21:09:56 68° W 21:13:46 10° N
Okean 1 Rocket 3.5 21:12:02 10° SSE 21:16:03 38° E 21:20:06 10° NNE
GENESIS II 4.1 21:12:58 10° NNW 21:16:54 89° E 21:19:40 18° SSE
Cosmos 1300 Rocket 3.5 21:12:42 10° S 21:16:56 61° E 21:21:11 10° NNE
Cosmos 2263 Rocket 2.5 21:14:36 10° NNW 21:20:10 51° ENE 21:23:58 20° SE
NOSS 2-3 (C) 4.1 21:16:49 10° SW 21:21:25 72° NW 21:26:42 10° NNE
Cosmos 2322 Rocket 2.6 21:15:47 10° SSW 21:21:28 70° WNW 21:27:11 10° NNE
Cosmos 1025 Rocket 4.2 21:18:50 10° NNE 21:22:18 24° ENE 21:23:14 22° E
Meteor 1-11 Rocket 3.8 21:17:08 10° S 21:23:00 86° W 21:28:46 10° N
YAOGAN 6 3.2 21:22:13 26° ESE 21:23:26 35° ENE 21:26:40 10° N
SJ-11-01 4.4 21:21:00 17° SSE 21:24:28 55° ENE 21:29:03 10° N
GPS 2-05 Rocket1 2.9 21:21:58 10° W 21:25:20 59° S 21:26:33 34° SE
Tiangong 1 1.7 21:23:15 10° NW 21:25:54 38° NNE 21:26:47 28° ENE
Cosmos 1140 Rocket 4.1 21:21:18 10° NNW 21:26:26 58° WSW 21:31:34 10° S
S3M 4.1 21:21:13 10° N 21:27:31 82° W 21:33:52 10° S
Cosmos 614 Rocket 4.3 21:22:27 10° NNW 21:27:32 67° WSW 21:32:38 10° S
Cosmos 1553 Rocket 4.2 21:22:33 10° N 21:28:41 74° W 21:34:42 10° S
Spot 2 Rocket 3.9 21:24:40 10° S 21:29:44 66° WSW 21:34:49 10° NNW
Cosmos 2266 Rocket 3.8 21:23:58 10° S 21:29:58 71° E 21:35:58 10° N
Resurs 01 Rocket 2.5 21:26:48 10° S 21:31:06 49° W 21:35:26 10° NNW
Okean 1-7 Rocket 4.5 21:27:59 10° NNE 21:31:58 30° ENE 21:32:58 27° ESE
SL-16 R/B 3.0 21:28:10 10° SW 21:33:42 55° WNW 21:39:16 10° NNE
CZ-4B DEB 4.4 21:32:27 28° SSE 21:34:10 73° ENE 21:37:40 10° N
Cosmos 2315 Rocket 4.3 21:34:14 10° N 21:40:16 47° E 21:43:24 27° SE
Helios 1A 3.1 21:41:23 35° SE 21:42:58 58° ENE 21:47:09 10° N
Meteor 1-23 Rocket 4.1 21:38:03 10° N 21:43:38 70° E 21:47:03 24° SSE
Cosmos 2322 3.7 21:39:29 10° S 21:44:59 57° ESE 21:50:33 10° NNE
ERS-1 Rocket 3.5 21:46:40 33° ESE 21:47:56 39° ENE 21:52:35 10° N
Cosmos 1500 4.5 21:52:06 27° NE 21:52:06 27° NE 21:54:27 10° NNE
ATLAS 3B R/B 3.2 21:45:02 10° NNW 21:51:23 42° NE 21:53:55 30° E
Cosmos 2360 Rocket 2.1 21:48:28 10° SSW 21:54:06 86° ESE 21:59:45 10° NNE
OAO 1 Rocket 4.4 21:49:14 10° WSW 21:54:34 73° S 21:56:30 40° E
Meteor 1-29 3.3 21:51:15 10° NNE 21:54:00 49° NE 21:54:00 49° NE
COSMOS 2428 3.2 21:55:48 37° ESE 21:55:58 37° ESE 22:01:11 10° NE
Cosmos 1939 Rocket 3.5 21:53:53 22° S 21:56:13 53° W 22:00:05 10° NNW
USA 267 4.4 21:51:53 13° S 21:57:03 35° SW 22:02:59 10° WNW
Cosmos 1536 4.2 21:53:45 10° SSW 21:57:35 40° W 22:01:27 10° N
Envisat 4.1 21:54:17 10° S 21:59:05 43° W 22:03:54 10° NNW
Lacrosse 5 rocket 3.8 21:59:22 10° W 22:01:06 13° WSW 22:02:51 10° SSW
Cosmos 1932 4.4 21:55:21 10° NNW 22:01:52 80° ENE 22:04:25 39° SE
Cosmos 482 Debris 4.5 22:03:29 10° SW 22:07:13 51° SW 22:07:13 51° SW
H-2A R/B 3.1 22:08:23 28° ENE 22:08:23 28° ENE 22:12:21 10° N
Cosmos 2333 Rocket 4.3 22:13:04 12° NE 22:13:04 12° NE 22:13:34 10° NE
SAR-Lupe-4 4.2 22:12:33 49° NNE 22:12:33 49° NNE 22:15:21 10° N
NOAA 11 4.1 22:12:03 47° SSE 22:13:42 81° ENE 22:19:13 10° N
CZ-4B DEB 4.4 22:15:44 28° NNW 22:15:44 28° NNW 22:17:16 10° NNW
Cosmos 1238 Rocket 4.1 22:08:06 10° N 22:14:38 53° E 22:15:42 47° ESE
Cosmos 2333 4.3 22:16:47 50° E 22:16:47 50° E 22:21:48 10° NNE
Meteosat 1 Rocket2 4.5 22:12:31 10° WSW 22:17:43 41° S 22:18:09 41° SSE
Cosmos 1302 Rocket 3.9 22:19:34 61° SSE 22:20:21 72° ESE 22:25:38 10° NNE
MetOp-A 4.0 22:24:43 66° SSE 22:25:29 82° ENE 22:30:52 10° N
Cosmos 1486 Rocket 4.3 22:21:22 10° N 22:26:11 49° ENE 22:26:11 49° ENE
ATLAS 2AS CENTAUR R/B 4.0 22:20:27 10° WSW 22:27:49 48° NW 22:35:37 10° NNE
Aureole 3 Rocket 4.0 22:21:11 10° N 22:29:14 66° E 22:30:15 58° ESE
Delta 2 Rocket 4.0 22:25:42 10° W 22:28:55 52° WSW 22:28:55 52° WSW
Helios 1B rocket 4.0 22:27:31 10° N 22:31:15 34° WNW 22:33:57 16° SW
SPOT 5 3.2 22:33:36 53° NE 22:33:36 53° NE 22:37:30 10° N
BREEZE M DEB (TANK) 3.0 22:25:20 10° WSW 22:33:10 59° NW 22:33:38 53° N
Cosmos 1241 Rocket 4.4 22:26:48 10° SSW 22:33:23 85° ESE 22:39:54 10° NNE
Intelsat 5-1 Rocket 4.4 22:17:11 10° WSW 22:34:34 40° SSW 22:36:17 37° S
Cosmos 1455 Rocket 4.4 22:37:04 32° NNE 22:37:04 32° NNE 22:39:33 10° NNE
Lacrosse 5 4.0 22:35:01 10° W 22:39:15 26° NW 22:43:30 10° NNE
Cosmos 1066 Rocket 4.1 22:36:05 10° N 22:41:15 73° NE 22:41:15 73° NE
Centaur D AC-29 4.1 22:39:31 10° SW 22:43:39 16° SSW 22:43:39 16° SSW
SL-08 RB Rocket 4.4 22:49:38 51° NNW 22:49:38 51° NNW 22:53:03 10° NNW
SL-8 R/B 4.5 22:44:15 10° NW 22:48:14 47° N 22:48:14 47° N
ARGOS 3.2 22:49:54 74° WSW 22:49:54 74° WSW 22:55:17 10° NNW
Atlas Centaur 2 3.7 22:44:56 10° W 22:51:30 32° SSW 22:51:30 32° SSW
Nadezhda 1 Rocket 4.2 22:47:27 10° N 22:53:09 57° ENE 22:53:09 57° ENE
Cosmos 2263 Rocket 4.2 22:59:42 10° NW 23:03:36 19° W 23:05:41 16° SW
Cosmos 2278 Rocket 3.5 23:02:55 10° N 23:06:39 29° NNE 23:06:39 29° NNE
SPOT 1/Viking Rocket 4.1 23:10:41 54° NNW 23:10:41 54° NNW 23:14:45 10° NNW
Cosmos 1818 4.3 23:10:06 47° W 23:10:49 51° NW 23:16:08 10° NNE
Cosmos 1844 Rocket 3.1 23:05:31 10° NNW 23:10:09 61° NNW 23:10:09 61° NNW
Terra 3.5 23:16:55 28° N 23:16:55 28° N 23:19:14 10° N
Cosmos 2219 Rocket 3.1 23:24:26 45° N 23:24:26 45° N 23:28:27 10° NNE
NOSS 3-2 (A) 3.9 23:17:58 10° NNW 23:25:38 82° NE 23:25:38 82° NE
USA 238 DEB 4.2 23:20:42 10° NW 23:27:24 53° WSW 23:27:24 53° WSW
USA 238 4.2 23:20:48 10° NW 23:27:30 54° WSW 23:27:30 54° WSW
COSMOS 2428 4.4 23:37:39 21° W 23:40:15 29° WNW 23:45:10 10° N
ATLAS 3B R/B 3.8 23:36:04 10° NW 23:41:11 32° W 23:41:11 32° W
H-2A R/B 3.9 23:49:02 24° WNW 23:49:02 24° WNW 23:51:46 10° NW
Cosmos 2333 Rocket 3.6 23:55:01 34° NNW 23:55:01 34° NNW 23:58:37 10° N
